Hourly Data Report for October 04, 2014

All times are specified in Local Standard Time (LST). Add 1 hour to adjust for Daylight Saving Time where and when it is observed.

HALL BEACH A
NUNAVUT

68°46'33.000" N
81°14'33.000" W
9.10 m
2402354
71293
YUX

Download Data

Hourly Data (October 2014)
Hourly Data Report for October 4, 2014
Temp Definition
°C
Dew Point Temp Definition
°C
Rel Hum Definition
%
Wind Dir Definition
10's deg

Wind Spd Definition
km/h
Visibility Definition
km
Stn Press Definition
kPa
Hmdx Definition


Wind Chill Definition


Weather Definition


TIME
00:00 Legend Double Dagger -7.3 -8.1 94 33 17 16.1 101.66   -14 LegendNANA
01:00 Legend Double Dagger -7.8 -8.6 94 31 18 16.1 101.67   -15 LegendNANA
02:00 Legend Double Dagger -7.9 -8.4 96 33 22 16.1 101.65   -16 LegendNANA
03:00 Legend Double Dagger -8.1 -8.6 96 34 18 16.1 101.66   -15 LegendNANA
04:00 Legend Double Dagger -6.9 -7.4 96 32 8 16.1 101.71   -11 LegendNANA
05:00 Legend Double Dagger -6.5 -7.0 96 32 22 16.1 101.72   -14 LegendNANA
06:00 Legend Double Dagger -4.3 -5.7 90 2 18 16.1 101.75   -10 LegendNANA
07:00 Legend Double Dagger -4.1 -5.8 88 4 11 16.1 101.77   -9 LegendNANA
08:00 Legend Double Dagger -5.3 -6.1 94 33 21 16.1 101.76   -12 LegendNANA
09:00 Legend Double Dagger -5.4 -6.4 93 32 24 16.1 101.75   -13 LegendNANA
10:00 Legend Double Dagger -5.4 -6.2 94 34 22 16.1 101.78   -12 LegendNANA
11:00 Legend Double Dagger -5.5 -6.3 94 34 24 16.1 101.76   -13 LegendNANA
12:00 Legend Double Dagger -5.4 -6.4 93 34 22 16.1 101.82   -12 LegendNANA
13:00 Legend Double Dagger -4.7 -6.0 91 34 22 16.1 101.82   -12 LegendNANA
14:00 Legend Double Dagger -4.1 -5.5 90 1 17 16.1 101.82   -10 LegendNANA
15:00 Legend Double Dagger -4.2 -5.3 92 36 21 16.1 101.80   -11 LegendNANA
16:00 Legend Double Dagger -4.1 -5.4 91 33 13 16.1 101.85   -9 LegendNANA
17:00 Legend Double Dagger -4.4 -5.5 92 34 15 16.1 101.92   -10 LegendNANA
18:00 Legend Double Dagger -5.1 -5.9 94 33 21 16.1 101.94   -12 LegendNANA
19:00 Legend Double Dagger -5.3 -6.1 94 33 22 16.1 101.94   -12 LegendNANA
20:00 Legend Double Dagger -4.9 -5.7 94 33 17 16.1 101.94   -11 LegendNANA
21:00 Legend Double Dagger -3.8 -6.0 85 8 11 16.1 101.96   -8 LegendNANA
22:00 Legend Double Dagger -4.0 -6.3 84 2 9 16.1 101.98   -8 LegendNANA
23:00 Legend Double Dagger -4.1 -6.3 85 5 9 16.1 101.98   -8 LegendNANA

Notes on Data Quality.

Legend

  • E = Estimated
  • M = Missing
  • NA = Not Available
  • ‡ = Partner data that is not subject to review by the National Climate Archives
Date modified: